| time (UTC) | temp F | wind direction | speed MPH | gust MPH | rain 1hr in | rain 24hr in | rain mn in | humidity % | barometer mb |
| 20260508142853 | 65 | 67 | 1.0 | 2.0 | 0.00 | 0.00 | 0.00 | 56 | 1013.6 |
| 20260508142350 | 65 | 59 | 1.0 | 2.0 | 0.00 | 0.00 | 0.00 | 56 | 1013.3 |
| 20260508141846 | 65 | 65 | 1.0 | 2.0 | 0.00 | 0.00 | 0.00 | 56 | 1013.6 |
| 20260508141343 | 65 | 61 | 1.0 | 1.0 | 0.00 | 0.00 | 0.00 | 58 | 1013.6 |
| 20260508140841 | 65 | 60 | 1.0 | 1.0 | 0.00 | 0.00 | 0.00 | 60 | 1013.6 |
| 20260508140337 | 65 | 59 | 1.0 | 1.0 | 0.00 | 0.00 | 0.00 | 61 | 1013.6 |
| 20260508135833 | 64 | 59 | 0.0 | 1.0 | 0.00 | 0.00 | 0.00 | 59 | 1013.8 |
| 20260508135330 | 64 | 80 | 1.0 | 2.0 | 0.00 | 0.00 | 0.00 | 58 | 1013.6 |
| 20260508134826 | 64 | 76 | 1.0 | 2.0 | 0.00 | 0.00 | 0.00 | 57 | 1013.8 |
| 20260508134322 | 65 | 76 | 2.0 | 2.0 | 0.00 | 0.00 | 0.00 | 58 | 1013.3 |
| 20260508133819 | 65 | 72 | 1.0 | 2.0 | 0.00 | 0.00 | 0.00 | 60 | 1013.6 |
| 20260508133317 | 66 | 58 | 1.0 | 2.0 | 0.00 | 0.00 | 0.00 | 63 | 1013.5 |
| 20260508132814 | 66 | 66 | 1.0 | 1.0 | 0.00 | 0.00 | 0.00 | 64 | 1013.5 |
| 20260508132312 | 66 | 55 | 1.0 | 1.0 | 0.00 | 0.00 | 0.00 | 67 | 1013.4 |
| 20260508131808 | 66 | 69 | 1.0 | 2.0 | 0.00 | 0.00 | 0.00 | 66 | 1013.5 |
| 20260508131304 | 66 | 61 | 0.0 | 1.0 | 0.00 | 0.00 | 0.00 | 64 | 1013.5 |
| 20260508130800 | 66 | 54 | 1.0 | 1.0 | 0.00 | 0.00 | 0.00 | 68 | 1013.3 |
| 20260508130258 | 64 | 48 | 0.0 | 2.0 | 0.00 | 0.00 | 0.00 | 70 | 1013.2 |
| 20260508125754 | 63 | 103 | 3.0 | 3.0 | 0.00 | 0.00 | 0.00 | 71 | 1013.2 |
| 20260508125250 | 62 | 49 | 0.0 | 3.0 | 0.00 | 0.00 | 0.00 | 74 | 1013.1 |
| 20260508124749 | 61 | 67 | 0.0 | 2.0 | 0.00 | 0.00 | 0.00 | 81 | 1012.9 |
| 20260508124245 | 60 | 74 | 1.0 | 2.0 | 0.00 | 0.00 | 0.00 | 86 | 1012.8 |
| 20260508123743 | 59 | 71 | 1.0 | 1.0 | 0.00 | 0.00 | 0.00 | 90 | 1012.9 |
| 20260508123241 | 59 | 58 | 0.0 | 0.0 | 0.00 | 0.00 | 0.00 | 91 | 1013.0 |
| 20260508122737 | 59 | 58 | 0.0 | 0.0 | 0.00 | 0.00 | 0.00 | 91 | 1012.9 |
| 20260508122234 | 59 | 58 | 0.0 | 0.0 | 0.00 | 0.00 | 0.00 | 91 | 1012.8 |
| 20260508121731 | 59 | 58 | 0.0 | 0.0 | 0.00 | 0.00 | 0.00 | 91 | 1012.8 |
| 20260508121230 | 58 | 58 | 0.0 | 0.0 | 0.00 | 0.00 | 0.00 | 91 | 1012.7 |
| 20260508120726 | 58 | 58 | 0.0 | 0.0 | 0.00 | 0.00 | 0.00 | 91 | 1013.0 |
| 20260508120225 | 57 | 58 | 0.0 | 0.0 | 0.00 | 0.00 | 0.00 | 91 | 1012.6 |
| 20260508115722 | 57 | 58 | 0.0 | 0.0 | 0.00 | 0.00 | 0.00 | 91 | 1012.7 |
| 20260508115220 | 57 | 58 | 0.0 | 0.0 | 0.00 | 0.00 | 0.00 | 90 | 1012.5 |
| 20260508114716 | 57 | 58 | 0.0 | 0.0 | 0.00 | 0.00 | 0.00 | 90 | 1012.4 |
| 20260508114213 | 57 | 58 | 0.0 | 0.0 | 0.00 | 0.00 | 0.00 | 90 | 1012.6 |
| 20260508113709 | 56 | 58 | 0.0 | 0.0 | 0.00 | 0.00 | 0.00 | 90 | 1012.4 |
| 20260508113208 | 56 | 58 | 0.0 | 0.0 | 0.00 | 0.00 | 0.00 | 90 | 1012.1 |
| 20260508112703 | 56 | 58 | 0.0 | 0.0 | 0.00 | 0.00 | 0.00 | 90 | 1012.1 |
| 20260508112200 | 56 | 58 | 0.0 | 0.0 | 0.00 | 0.00 | 0.00 | 90 | 1012.0 |
| 20260508111657 | 56 | 58 | 0.0 | 0.0 | 0.00 | 0.00 | 0.00 | 90 | 1011.7 |
| 20260508111155 | 56 | 58 | 0.0 | 0.0 | 0.00 | 0.00 | 0.00 | 90 | 1011.8 |
| 20260508110652 | 56 | 58 | 0.0 | 0.0 | 0.00 | 0.00 | 0.00 | 90 | 1011.5 |
| 20260508110149 | 56 | 58 | 0.0 | 0.0 | 0.00 | 0.00 | 0.00 | 90 | 1011.5 |
| 20260508105643 | 56 | 58 | 0.0 | 0.0 | 0.00 | 0.00 | 0.00 | 90 | 1011.8 |
| 20260508105140 | 56 | 58 | 0.0 | 0.0 | 0.00 | 0.00 | 0.00 | 90 | 1011.5 |
| 20260508104638 | 56 | 58 | 0.0 | 0.0 | 0.00 | 0.00 | 0.00 | 90 | 1011.6 |
| 20260508104134 | 56 | 58 | 0.0 | 0.0 | 0.00 | 0.00 | 0.00 | 90 | 1011.3 |
| 20260508103626 | 55 | 58 | 0.0 | 0.0 | 0.00 | 0.00 | 0.00 | 89 | 1011.2 |
| 20260508103123 | 56 | 58 | 0.0 | 0.0 | 0.00 | 0.00 | 0.00 | 89 | 1011.2 |
| 20260508102620 | 56 | 58 | 0.0 | 0.0 | 0.00 | 0.00 | 0.00 | 89 | 1010.9 |
| 20260508102119 | 56 | 58 | 0.0 | 0.0 | 0.00 | 0.00 | 0.00 | 89 | 1010.8 |
| 20260508101616 | 56 | 58 | 0.0 | 0.0 | 0.00 | 0.00 | 0.00 | 89 | 1010.9 |
| 20260508101113 | 56 | 58 | 0.0 | 0.0 | 0.00 | 0.00 | 0.00 | 89 | 1010.7 |
| 20260508100610 | 56 | 58 | 0.0 | 0.0 | 0.00 | 0.00 | 0.00 | 89 | 1010.5 |
| 20260508100108 | 57 | 58 | 0.0 | 0.0 | 0.00 | 0.00 | 0.00 | 89 | 1010.6 |
| 20260508095604 | 57 | 58 | 0.0 | 0.0 | 0.00 | 0.00 | 0.00 | 89 | 1010.4 |
| 20260508095101 | 57 | 58 | 0.0 | 0.0 | 0.00 | 0.00 | 0.00 | 89 | 1010.5 |
| 20260508094558 | 57 | 58 | 0.0 | 0.0 | 0.00 | 0.00 | 0.00 | 89 | 1010.5 |
| 20260508094055 | 57 | 58 | 0.0 | 0.0 | 0.00 | 0.00 | 0.00 | 88 | 1010.3 |
| 20260508093552 | 57 | 58 | 0.0 | 0.0 | 0.00 | 0.00 | 0.00 | 88 | 1010.4 |
| 20260508093050 | 57 | 58 | 0.0 | 0.0 | 0.00 | 0.00 | 0.00 | 88 | 1010.4 |
| 20260508092547 | 57 | 58 | 0.0 | 0.0 | 0.00 | 0.00 | 0.00 | 88 | 1010.5 |
| 20260508092046 | 57 | 58 | 0.0 | 0.0 | 0.00 | 0.00 | 0.00 | 88 | 1010.3 |
| 20260508091542 | 58 | 58 | 0.0 | 0.0 | 0.00 | 0.00 | 0.00 | 88 | 1010.4 |
| 20260508091039 | 58 | 58 | 0.0 | 0.0 | 0.00 | 0.00 | 0.00 | 88 | 1010.3 |
| 20260508090538 | 58 | 58 | 0.0 | 0.0 | 0.00 | 0.00 | 0.00 | 87 | 1010.2 |
| 20260508090034 | 58 | 58 | 0.0 | 0.0 | 0.00 | 0.00 | 0.00 | 87 | 1010.2 |
| 20260508085530 | 58 | 58 | 0.0 | 0.0 | 0.00 | 0.00 | 0.00 | 87 | 1010.2 |
| 20260508085028 | 58 | 58 | 0.0 | 0.0 | 0.00 | 0.00 | 0.00 | 87 | 1010.2 |
| 20260508084524 | 58 | 58 | 0.0 | 0.0 | 0.00 | 0.00 | 0.00 | 86 | 1010.1 |
| 20260508084022 | 58 | 58 | 0.0 | 0.0 | 0.00 | 0.00 | 0.00 | 86 | 1010.1 |
| 20260508083519 | 59 | 58 | 0.0 | 0.0 | 0.00 | 0.00 | 0.00 | 86 | 1010.1 |
| 20260508083015 | 59 | 58 | 0.0 | 0.0 | 0.00 | 0.00 | 0.00 | 86 | 1010.2 |
| 20260508082511 | 59 | 58 | 0.0 | 0.0 | 0.00 | 0.00 | 0.00 | 85 | 1010.1 |
| 20260508082009 | 59 | 58 | 0.0 | 0.0 | 0.00 | 0.00 | 0.00 | 85 | 1010.0 |
| 20260508081506 | 59 | 58 | 0.0 | 0.0 | 0.00 | 0.00 | 0.00 | 85 | 1009.9 |
| 20260508081002 | 59 | 58 | 0.0 | 0.0 | 0.00 | 0.00 | 0.00 | 84 | 1009.8 |
| 20260508080500 | 60 | 58 | 0.0 | 0.0 | 0.00 | 0.00 | 0.00 | 84 | 1010.0 |
| 20260508075957 | 60 | 58 | 0.0 | 0.0 | 0.00 | 0.00 | 0.00 | 84 | 1009.9 |
| 20260508075454 | 60 | 58 | 0.0 | 0.0 | 0.00 | 0.00 | 0.00 | 84 | 1009.9 |
| 20260508074951 | 60 | 58 | 0.0 | 0.0 | 0.00 | 0.00 | 0.00 | 83 | 1009.8 |
| 20260508074449 | 60 | 58 | 0.0 | 0.0 | 0.00 | 0.00 | 0.00 | 83 | 1009.7 |
| 20260508073945 | 60 | 58 | 0.0 | 0.0 | 0.00 | 0.00 | 0.00 | 83 | 1010.0 |
| 20260508073443 | 60 | 58 | 0.0 | 0.0 | 0.00 | 0.00 | 0.00 | 83 | 1009.9 |
| 20260508072940 | 60 | 58 | 0.0 | 0.0 | 0.00 | 0.00 | 0.00 | 83 | 1009.8 |
| 20260508072436 | 60 | 58 | 0.0 | 0.0 | 0.00 | 0.00 | 0.00 | 83 | 1009.8 |
| 20260508071933 | 60 | 58 | 0.0 | 0.0 | 0.00 | 0.00 | 0.00 | 82 | 1009.8 |
| 20260508071431 | 60 | 58 | 0.0 | 0.0 | 0.00 | 0.00 | 0.00 | 82 | 1009.8 |
| 20260508070929 | 60 | 58 | 0.0 | 1.0 | 0.00 | 0.00 | 0.00 | 82 | 1009.4 |
| 20260508070426 | 60 | 58 | 0.0 | 0.0 | 0.00 | 0.00 | 0.00 | 82 | 1009.5 |
| 20260508065924 | 61 | 58 | 0.0 | 0.0 | 0.00 | 0.00 | 0.00 | 81 | 1009.7 |
| 20260508065422 | 61 | 58 | 0.0 | 0.0 | 0.00 | 0.00 | 0.00 | 81 | 1009.1 |
| 20260508064920 | 61 | 63 | 0.0 | 0.0 | 0.00 | 0.00 | 0.00 | 81 | 1009.2 |
| 20260508064417 | 61 | 63 | 0.0 | 1.0 | 0.00 | 0.00 | 0.00 | 81 | 1009.3 |
| 20260508063914 | 61 | 67 | 0.0 | 0.0 | 0.00 | 0.00 | 0.00 | 80 | 1009.4 |
| 20260508063412 | 61 | 67 | 0.0 | 0.0 | 0.00 | 0.00 | 0.00 | 80 | 1009.3 |
| 20260508062909 | 61 | 67 | 0.0 | 1.0 | 0.00 | 0.00 | 0.00 | 80 | 1009.5 |
| 20260508062407 | 62 | 67 | 0.0 | 0.0 | 0.00 | 0.00 | 0.00 | 79 | 1009.5 |
| 20260508061904 | 62 | 67 | 0.0 | 1.0 | 0.00 | 0.00 | 0.00 | 79 | 1009.3 |
| 20260508061401 | 62 | 67 | 1.0 | 2.0 | 0.00 | 0.00 | 0.00 | 79 | 1009.5 |
| 20260508060857 | 62 | 67 | 0.0 | 1.0 | 0.00 | 0.00 | 0.00 | 79 | 1009.3 |
| 20260508060355 | 62 | 69 | 1.0 | 1.0 | 0.00 | 0.00 | 0.00 | 79 | 1009.5 |
| 20260508055850 | 62 | 67 | 0.0 | 1.0 | 0.00 | 0.00 | 0.00 | 79 | 1009.7 |
| 20260508055348 | 62 | 67 | 1.0 | 2.0 | 0.00 | 0.00 | 0.00 | 78 | 1009.8 |
| 20260508054844 | 62 | 69 | 1.0 | 2.0 | 0.00 | 0.00 | 0.00 | 79 | 1009.5 |
| 20260508054341 | 63 | 68 | 2.0 | 2.0 | 0.00 | 0.00 | 0.00 | 79 | 1009.3 |
| 20260508053838 | 63 | 70 | 1.0 | 1.0 | 0.00 | 0.00 | 0.00 | 78 | 1009.7 |
| 20260508053336 | 63 | 70 | 1.0 | 2.0 | 0.00 | 0.00 | 0.00 | 78 | 1009.6 |
| 20260508052833 | 63 | 63 | 1.0 | 2.0 | 0.00 | 0.00 | 0.00 | 79 | 1009.5 |
| 20260508052331 | 63 | 76 | 2.0 | 3.0 | 0.00 | 0.00 | 0.00 | 79 | 1009.4 |
| 20260508051826 | 63 | 67 | 1.0 | 2.0 | 0.00 | 0.00 | 0.00 | 80 | 1009.4 |
| 20260508051322 | 64 | 68 | 1.0 | 2.0 | 0.00 | 0.00 | 0.00 | 80 | 1009.4 |
| 20260508050818 | 64 | 64 | 0.0 | 1.0 | 0.00 | 0.00 | 0.00 | 80 | 1009.3 |
| 20260508050315 | 64 | 63 | 0.0 | 1.0 | 0.00 | 0.00 | 0.00 | 79 | 1009.2 |
| 20260508045811 | 65 | 58 | 0.0 | 1.0 | 0.00 | 0.00 | 0.00 | 79 | 1009.2 |
| 20260508045309 | 65 | 58 | 0.0 | 0.0 | 0.00 | 0.00 | 0.00 | 79 | 1009.3 |
| 20260508044807 | 65 | 58 | 1.0 | 1.0 | 0.00 | 0.00 | 0.00 | 78 | 1009.3 |
| 20260508044303 | 65 | 57 | 0.0 | 1.0 | 0.00 | 0.00 | 0.00 | 78 | 1009.1 |
| 20260508043759 | 66 | 57 | 0.0 | 0.0 | 0.00 | 0.00 | 0.00 | 77 | 1009.2 |
| 20260508043256 | 66 | 57 | 0.0 | 0.0 | 0.00 | 0.00 | 0.00 | 77 | 1009.0 |
| 20260508042753 | 66 | 58 | 1.0 | 1.0 | 0.00 | 0.00 | 0.00 | 76 | 1008.9 |
| 20260508042251 | 66 | 57 | 0.0 | 1.0 | 0.00 | 0.00 | 0.00 | 76 | 1008.7 |
| 20260508041747 | 66 | 57 | 0.0 | 1.0 | 0.00 | 0.00 | 0.00 | 75 | 1008.8 |
| 20260508041244 | 66 | 67 | 1.0 | 2.0 | 0.00 | 0.00 | 0.00 | 76 | 1008.7 |
| 20260508040740 | 66 | 55 | 0.0 | 1.0 | 0.00 | 0.00 | 0.00 | 75 | 1008.7 |
| 20260508040237 | 66 | 54 | 1.0 | 1.0 | 0.00 | 0.00 | 0.00 | 75 | 1009.0 |
| 20260508035735 | 66 | 52 | 0.0 | 1.0 | 0.00 | 1.56 | 1.56 | 76 | 1008.5 |
| 20260508035232 | 66 | 52 | 1.0 | 1.0 | 0.00 | 1.56 | 1.56 | 77 | 1008.7 |
| 20260508034729 | 66 | 44 | 0.0 | 1.0 | 0.00 | 1.56 | 1.56 | 77 | 1008.7 |
| 20260508034226 | 66 | 42 | 0.0 | 0.0 | 0.00 | 1.56 | 1.56 | 77 | 1008.8 |
| 20260508033723 | 66 | 42 | 0.0 | 0.0 | 0.00 | 1.56 | 1.56 | 76 | 1008.6 |
| 20260508033221 | 67 | 43 | 0.0 | 0.0 | 0.00 | 1.56 | 1.56 | 75 | 1008.7 |
| 20260508032719 | 67 | 42 | 0.0 | 0.0 | 0.00 | 1.56 | 1.56 | 74 | 1008.7 |
| 20260508032216 | 68 | 28 | 1.0 | 3.0 | 0.00 | 1.56 | 1.56 | 75 | 1008.5 |
| 20260508031712 | 68 | 304 | 3.0 | 6.0 | 0.00 | 1.56 | 1.56 | 73 | 1008.4 |
| 20260508031208 | 68 | 303 | 4.0 | 5.0 | 0.00 | 1.56 | 1.56 | 73 | 1008.3 |
| 20260508030705 | 68 | 293 | 4.0 | 7.0 | 0.00 | 1.56 | 1.56 | 72 | 1008.5 |
| 20260508030203 | 69 | 308 | 4.0 | 6.0 | 0.00 | 1.56 | 1.56 | 72 | 1008.4 |
| 20260508025658 | 69 | 284 | 4.0 | 7.0 | 0.00 | 1.56 | 1.56 | 72 | 1008.1 |
| 20260508025156 | 69 | 293 | 4.0 | 7.0 | 0.00 | 1.56 | 1.56 | 72 | 1008.1 |
| 20260508024652 | 69 | 288 | 5.0 | 8.0 | 0.00 | 1.56 | 1.56 | 72 | 1008.0 |
| 20260508024149 | 69 | 321 | 5.0 | 9.0 | 0.00 | 1.56 | 1.56 | 72 | 1008.2 |
| 20260508023645 | 69 | 293 | 6.0 | 8.0 | 0.00 | 1.56 | 1.56 | 74 | 1008.0 |
| 20260508023143 | 70 | 290 | 5.0 | 11.0 | 0.00 | 1.56 | 1.56 | 72 | 1007.8 |
| 20260508022638 | 69 | 271 | 9.0 | 10.0 | 0.00 | 1.56 | 1.56 | 72 | 1008.0 |
| 20260508022136 | 70 | 324 | 5.0 | 9.0 | 0.00 | 1.56 | 1.56 | 73 | 1007.9 |
| 20260508021632 | 70 | 287 | 5.0 | 9.0 | 0.00 | 1.56 | 1.56 | 74 | 1007.7 |
| 20260508021127 | 70 | 290 | 8.0 | 8.0 | 0.00 | 1.56 | 1.56 | 73 | 1007.7 |
| 20260508020626 | 70 | 327 | 5.0 | 9.0 | 0.00 | 1.56 | 1.56 | 72 | 1007.2 |
| 20260508020123 | 70 | 300 | 7.0 | 8.0 | 0.00 | 1.56 | 1.56 | 72 | 1007.2 |
| 20260508015620 | 71 | 287 | 7.0 | 10.0 | 0.00 | 1.56 | 1.56 | 72 | 1007.2 |
| 20260508015116 | 71 | 282 | 6.0 | 9.0 | 0.00 | 1.56 | 1.56 | 72 | 1006.9 |
| 20260508014613 | 71 | 290 | 5.0 | 9.0 | 0.00 | 1.56 | 1.56 | 71 | 1006.7 |
| 20260508014110 | 71 | 273 | 7.0 | 8.0 | 0.00 | 1.56 | 1.56 | 72 | 1006.8 |
| 20260508013606 | 71 | 298 | 5.0 | 7.0 | 0.00 | 1.56 | 1.56 | 72 | 1006.7 |
| 20260508013103 | 71 | 310 | 5.0 | 8.0 | 0.00 | 1.56 | 1.56 | 73 | 1006.5 |
| 20260508012601 | 71 | 286 | 6.0 | 8.0 | 0.00 | 1.56 | 1.56 | 72 | 1006.6 |
| 20260508012057 | 71 | 284 | 5.0 | 9.0 | 0.00 | 1.56 | 1.56 | 73 | 1006.4 |
| 20260508011556 | 71 | 293 | 4.0 | 5.0 | 0.00 | 1.56 | 1.56 | 73 | 1006.2 |
| 20260508011053 | 71 | 340 | 3.0 | 5.0 | 0.00 | 1.56 | 1.56 | 73 | 1006.0 |
| 20260508010549 | 71 | 296 | 4.0 | 6.0 | 0.00 | 1.56 | 1.56 | 72 | 1006.0 |
| 20260508010047 | 72 | 304 | 5.0 | 5.0 | 0.00 | 1.56 | 1.56 | 72 | 1005.7 |
| 20260508005543 | 72 | 307 | 4.0 | 6.0 | 0.00 | 1.56 | 1.56 | 70 | 1005.9 |
| 20260508005040 | 72 | 293 | 5.0 | 6.0 | 0.00 | 1.56 | 1.56 | 70 | 1005.7 |
| 20260508004536 | 73 | 294 | 5.0 | 6.0 | 0.00 | 1.56 | 1.56 | 69 | 1005.6 |
| 20260508004033 | 73 | 282 | 5.0 | 7.0 | 0.00 | 1.56 | 1.56 | 69 | 1005.4 |
| 20260508003530 | 73 | 281 | 5.0 | 7.0 | 0.00 | 1.56 | 1.56 | 68 | 1005.3 |
| 20260508003027 | 73 | 291 | 5.0 | 9.0 | 0.00 | 1.56 | 1.56 | 69 | 1005.2 |
| 20260508002523 | 73 | 296 | 7.0 | 8.0 | 0.00 | 1.56 | 1.56 | 68 | 1005.3 |
| 20260508002021 | 73 | 284 | 5.0 | 7.0 | 0.00 | 1.56 | 1.56 | 67 | 1005.1 |
| 20260508001516 | 74 | 283 | 7.0 | 7.0 | 0.00 | 1.56 | 1.56 | 67 | 1005.1 |
| 20260508001013 | 74 | 284 | 8.0 | 9.0 | 0.00 | 1.56 | 1.56 | 66 | 1004.9 |
| 20260508000509 | 75 | 311 | 11.0 | 13.0 | 0.00 | 1.56 | 1.56 | 64 | 1004.8 |
| 20260508000006 | 75 | 281 | 7.0 | 10.0 | 0.00 | 1.56 | 1.56 | 66 | 1004.7 |
| 20260507235503 | 75 | 284 | 8.0 | 10.0 | 0.00 | 1.56 | 1.56 | 65 | 1004.6 |
| 20260507235000 | 75 | 262 | 7.0 | 11.0 | 0.00 | 1.56 | 1.56 | 65 | 1004.4 |
| 20260507234456 | 75 | 286 | 8.0 | 10.0 | 0.00 | 1.56 | 1.56 | 65 | 1004.4 |
| 20260507233953 | 75 | 294 | 7.0 | 11.0 | 0.00 | 1.56 | 1.56 | 65 | 1004.2 |
| 20260507233450 | 75 | 288 | 8.0 | 13.0 | 0.00 | 1.56 | 1.56 | 65 | 1004.2 |
| 20260507232948 | 76 | 287 | 7.0 | 11.0 | 0.00 | 1.56 | 1.56 | 66 | 1004.3 |
| 20260507232444 | 76 | 278 | 9.0 | 11.0 | 0.00 | 1.56 | 1.56 | 64 | 1004.1 |
| 20260507231942 | 76 | 284 | 9.0 | 11.0 | 0.00 | 1.56 | 1.56 | 65 | 1004.2 |
| 20260507231438 | 76 | 277 | 11.0 | 15.0 | 0.00 | 1.56 | 1.56 | 63 | 1004.3 |
| 20260507230935 | 76 | 287 | 11.0 | 15.0 | 0.00 | 1.56 | 1.56 | 63 | 1004.2 |
| 20260507230432 | 77 | 295 | 12.0 | 15.0 | 0.00 | 1.56 | 1.56 | 64 | 1004.2 |
| 20260507225932 | 77 | 284 | 8.0 | 16.0 | 0.00 | 1.56 | 1.56 | 63 | 1004.0 |
| 20260507225428 | 77 | 284 | 9.0 | 13.0 | 0.00 | 1.56 | 1.56 | 64 | 1004.1 |
| 20260507224925 | 77 | 282 | 6.0 | 11.0 | 0.00 | 1.56 | 1.56 | 63 | 1004.0 |
| 20260507224421 | 77 | 284 | 11.0 | 15.0 | 0.00 | 1.56 | 1.56 | 63 | 1003.9 |
| 20260507223918 | 77 | 284 | 8.0 | 20.0 | 0.00 | 1.56 | 1.56 | 64 | 1003.9 |
| 20260507223414 | 77 | 269 | 13.0 | 21.0 | 0.00 | 1.56 | 1.56 | 65 | 1003.9 |
| 20260507222911 | 77 | 224 | 11.0 | 14.0 | 0.00 | 1.56 | 1.56 | 66 | 1004.0 |
| 20260507222408 | 77 | 263 | 14.0 | 20.0 | 0.00 | 1.56 | 1.56 | 64 | 1004.0 |
| 20260507221905 | 77 | 227 | 10.0 | 16.0 | 0.00 | 1.56 | 1.56 | 65 | 1004.0 |
| 20260507221401 | 78 | 286 | 13.0 | 17.0 | 0.00 | 1.56 | 1.56 | 65 | 1003.6 |
| 20260507220857 | 77 | 262 | 7.0 | 14.0 | 0.00 | 1.56 | 1.56 | 65 | 1003.8 |
| 20260507220355 | 77 | 277 | 10.0 | 14.0 | 0.00 | 1.56 | 1.56 | 67 | 1003.6 |
| 20260507215851 | 77 | 271 | 7.0 | 15.0 | 0.00 | 1.56 | 1.56 | 65 | 1003.9 |
| 20260507215348 | 77 | 232 | 9.0 | 14.0 | 0.00 | 1.56 | 1.56 | 68 | 1003.8 |
| 20260507214845 | 77 | 254 | 8.0 | 9.0 | 0.00 | 1.56 | 1.56 | 68 | 1003.6 |
| 20260507214343 | 77 | 286 | 7.0 | 9.0 | 0.00 | 1.56 | 1.56 | 70 | 1003.7 |
| 20260507213838 | 77 | 280 | 8.0 | 8.0 | 0.00 | 1.56 | 1.56 | 68 | 1003.8 |
| 20260507213335 | 77 | 288 | 8.0 | 9.0 | 0.00 | 1.56 | 1.56 | 69 | 1003.5 |
| 20260507212831 | 77 | 291 | 10.0 | 14.0 | 0.00 | 1.56 | 1.56 | 68 | 1003.6 |
| 20260507212327 | 77 | 281 | 10.0 | 11.0 | 0.00 | 1.56 | 1.56 | 69 | 1003.7 |
| 20260507211824 | 77 | 276 | 7.0 | 14.0 | 0.00 | 1.56 | 1.56 | 69 | 1003.6 |
| 20260507211321 | 77 | 246 | 9.0 | 14.0 | 0.00 | 1.56 | 1.56 | 69 | 1003.7 |
| 20260507210818 | 77 | 277 | 8.0 | 9.0 | 0.00 | 1.56 | 1.56 | 70 | 1003.5 |
| 20260507210315 | 77 | 238 | 7.0 | 9.0 | 0.00 | 1.56 | 1.56 | 69 | 1003.8 |
| 20260507205811 | 77 | 248 | 8.0 | 14.0 | 0.00 | 1.56 | 1.56 | 70 | 1003.6 |
| 20260507205308 | 77 | 279 | 5.0 | 6.0 | 0.00 | 1.56 | 1.56 | 70 | 1003.5 |
| 20260507204804 | 77 | 251 | 6.0 | 13.0 | 0.00 | 1.56 | 1.56 | 69 | 1003.6 |
| 20260507204302 | 77 | 303 | 6.0 | 9.0 | 0.00 | 1.56 | 1.56 | 69 | 1003.6 |
| 20260507203800 | 77 | 280 | 9.0 | 11.0 | 0.00 | 1.56 | 1.56 | 68 | 1003.7 |
| 20260507203258 | 77 | 296 | 5.0 | 10.0 | 0.00 | 1.56 | 1.56 | 68 | 1003.6 |
| 20260507202753 | 76 | 294 | 5.0 | 11.0 | 0.00 | 1.56 | 1.56 | 68 | 1003.8 |
| 20260507202249 | 76 | 284 | 6.0 | 9.0 | 0.00 | 1.56 | 1.56 | 70 | 1003.9 |
| 20260507201744 | 76 | 282 | 9.0 | 13.0 | 0.00 | 1.56 | 1.56 | 69 | 1004.3 |
| 20260507201241 | 76 | 284 | 14.0 | 20.0 | 0.00 | 1.56 | 1.56 | 70 | 1004.4 |
| 20260507200737 | 76 | 281 | 10.0 | 15.0 | 0.00 | 1.56 | 1.56 | 68 | 1004.4 |
| 20260507200228 | 76 | 283 | 10.0 | 11.0 | 0.00 | 1.56 | 1.56 | 68 | 1004.4 |
| 20260507195724 | 76 | 264 | 10.0 | 16.0 | 0.00 | 1.56 | 1.56 | 70 | 1004.3 |
| 20260507195221 | 75 | 275 | 14.0 | 18.0 | 0.00 | 1.56 | 1.56 | 71 | 1004.3 |
| 20260507194719 | 75 | 289 | 10.0 | 11.0 | 0.00 | 1.56 | 1.56 | 72 | 1004.3 |
| 20260507194215 | 75 | 286 | 9.0 | 15.0 | 0.00 | 1.56 | 1.56 | 72 | 1004.4 |
| 20260507193712 | 75 | 273 | 10.0 | 17.0 | 0.00 | 1.56 | 1.56 | 73 | 1004.3 |
| 20260507193208 | 75 | 296 | 7.0 | 13.0 | 0.00 | 1.56 | 1.56 | 74 | 1004.2 |
| 20260507192704 | 74 | 289 | 8.0 | 11.0 | 0.00 | 1.56 | 1.56 | 74 | 1004.7 |
| 20260507192202 | 74 | 277 | 8.0 | 11.0 | 0.00 | 1.56 | 1.56 | 75 | 1004.5 |
| 20260507191657 | 74 | 277 | 8.0 | 14.0 | 0.00 | 1.56 | 1.56 | 75 | 1004.5 |
| 20260507191154 | 75 | 295 | 11.0 | 13.0 | 0.00 | 1.56 | 1.56 | 76 | 1004.3 |
| 20260507190651 | 74 | 277 | 7.0 | 15.0 | 0.00 | 1.56 | 1.56 | 77 | 1004.2 |
| 20260507190150 | 74 | 297 | 8.0 | 10.0 | 0.00 | 1.56 | 1.56 | 78 | 1004.4 |
| 20260507185648 | 74 | 278 | 10.0 | 16.0 | 0.00 | 1.56 | 1.56 | 77 | 1004.4 |
| 20260507185144 | 73 | 317 | 5.0 | 9.0 | 0.00 | 1.56 | 1.56 | 78 | 1004.3 |
| 20260507184642 | 73 | 287 | 8.0 | 9.0 | 0.00 | 1.56 | 1.56 | 81 | 1004.6 |
| 20260507184140 | 73 | 279 | 7.0 | 8.0 | 0.00 | 1.56 | 1.56 | 79 | 1004.0 |
| 20260507183636 | 73 | 289 | 8.0 | 11.0 | 0.00 | 1.56 | 1.56 | 81 | 1004.2 |
| 20260507183133 | 73 | 287 | 6.0 | 9.0 | 0.00 | 1.56 | 1.56 | 83 | 1004.3 |
| 20260507182629 | 73 | 282 | 6.0 | 7.0 | 0.00 | 1.56 | 1.56 | 83 | 1004.2 |
| 20260507182126 | 72 | 294 | 7.0 | 7.0 | 0.00 | 1.56 | 1.56 | 83 | 1004.2 |
| 20260507181622 | 72 | 285 | 3.0 | 6.0 | 0.00 | 1.56 | 1.56 | 85 | 1004.5 |
| 20260507181118 | 71 | 281 | 7.0 | 16.0 | 0.00 | 1.56 | 1.56 | 85 | 1004.8 |
| 20260507180615 | 71 | 286 | 7.0 | 13.0 | 0.00 | 1.56 | 1.56 | 85 | 1004.7 |
| 20260507180112 | 71 | 270 | 10.0 | 10.0 | 0.00 | 1.56 | 1.56 | 86 | 1004.8 |
| 20260507175608 | 70 | 285 | 9.0 | 11.0 | 0.00 | 1.56 | 1.56 | 87 | 1004.9 |
| 20260507175106 | 71 | 296 | 5.0 | 6.0 | 0.00 | 1.56 | 1.56 | 88 | 1004.7 |
| 20260507174602 | 70 | 296 | 8.0 | 9.0 | 0.00 | 1.56 | 1.56 | 87 | 1004.8 |
| 20260507174100 | 70 | 285 | 7.0 | 10.0 | 0.00 | 1.56 | 1.56 | 88 | 1004.4 |
| 20260507173557 | 70 | 314 | 4.0 | 5.0 | 0.00 | 1.56 | 1.56 | 90 | 1004.2 |
| 20260507173054 | 69 | 298 | 5.0 | 6.0 | 0.00 | 1.56 | 1.56 | 92 | 1004.1 |
| 20260507172550 | 69 | 308 | 5.0 | 6.0 | 0.00 | 1.56 | 1.56 | 94 | 1004.5 |
| 20260507172047 | 69 | 316 | 4.0 | 6.0 | 0.00 | 1.56 | 1.56 | 95 | 1004.5 |
| 20260507171542 | 69 | 325 | 3.0 | 3.0 | 0.00 | 1.56 | 1.56 | 96 | 1004.5 |
| 20260507171040 | 69 | 296 | 5.0 | 7.0 | 0.00 | 1.56 | 1.56 | 96 | 1004.7 |
| 20260507170536 | 69 | 1 | 2.0 | 3.0 | 0.00 | 1.56 | 1.56 | 97 | 1004.9 |
| 20260507170034 | 68 | 19 | 1.0 | 1.0 | 0.00 | 1.56 | 1.56 | 97 | 1004.7 |
| 20260507165529 | 68 | 325 | 3.0 | 5.0 | 0.00 | 1.56 | 1.56 | 97 | 1004.9 |
| 20260507165026 | 68 | 34 | 1.0 | 3.0 | 0.00 | 1.56 | 1.56 | 97 | 1004.9 |
| 20260507164522 | 68 | 308 | 4.0 | 6.0 | 0.00 | 1.56 | 1.56 | 97 | 1005.1 |
| 20260507164019 | 68 | 357 | 4.0 | 6.0 | 0.00 | 1.56 | 1.56 | 97 | 1005.4 |
| 20260507163516 | 69 | 321 | 3.0 | 5.0 | 0.00 | 1.56 | 1.56 | 97 | 1005.5 |
| 20260507163015 | 68 | 345 | 3.0 | 6.0 | 0.00 | 1.56 | 1.56 | 98 | 1005.5 |
| 20260507162509 | 68 | 335 | 3.0 | 6.0 | 0.00 | 1.56 | 1.56 | 98 | 1005.2 |
| 20260507162006 | 68 | 3 | 2.0 | 3.0 | 0.00 | 1.56 | 1.56 | 98 | 1005.3 |
| 20260507161502 | 68 | 24 | 1.0 | 2.0 | 0.00 | 1.56 | 1.56 | 98 | 1005.4 |
| 20260507160959 | 68 | 300 | 3.0 | 3.0 | 0.00 | 1.56 | 1.56 | 98 | 1005.5 |
| 20260507160455 | 68 | 14 | 0.0 | 1.0 | 0.00 | 1.56 | 1.56 | 98 | 1005.3 |
| 20260507155951 | 67 | 29 | 1.0 | 1.0 | 0.05 | 1.56 | 1.56 | 98 | 1005.6 |
| 20260507155447 | 67 | 27 | 0.0 | 1.0 | 0.07 | 1.55 | 1.55 | 98 | 1005.7 |
| 20260507154944 | 67 | 35 | 1.0 | 1.0 | 0.07 | 1.55 | 1.55 | 98 | 1005.8 |
| 20260507154441 | 67 | 43 | 0.0 | 0.0 | 0.00 | 1.54 | 1.54 | 98 | 1005.5 |
| 20260507153938 | 67 | 5 | 2.0 | 3.0 | 0.00 | 1.54 | 1.54 | 98 | 1005.9 |
| 20260507153435 | 67 | 17 | 1.0 | 1.0 | 0.00 | 1.54 | 1.54 | 98 | 1005.7 |
| 20260507152931 | 67 | 39 | 0.0 | 0.0 | 0.00 | 1.54 | 1.54 | 98 | 1005.1 |
| 20260507152427 | 67 | 46 | 0.0 | 1.0 | 0.00 | 1.54 | 1.54 | 98 | 1004.7 |
| 20260507151923 | 67 | 44 | 0.0 | 1.0 | 0.00 | 1.54 | 1.54 | 98 | 1004.8 |
| 20260507151420 | 66 | 50 | 0.0 | 1.0 | 0.00 | 1.54 | 1.54 | 98 | 1005.1 |
| 20260507150917 | 66 | 44 | 0.0 | 0.0 | 0.00 | 1.54 | 1.54 | 98 | 1005.5 |
| 20260507150414 | 66 | 45 | 0.0 | 0.0 | 0.00 | 1.54 | 1.54 | 98 | 1005.5 |
| 20260507145910 | 66 | 45 | 0.0 | 0.0 | 0.00 | 1.54 | 1.54 | 98 | 1005.5 |
| 20260507145406 | 66 | 45 | 0.0 | 0.0 | 0.05 | 1.54 | 1.54 | 98 | 1005.6 |
| 20260507144903 | 66 | 50 | 0.0 | 1.0 | 0.00 | 1.53 | 1.53 | 98 | 1005.5 |
| 20260507144400 | 66 | 50 | 0.0 | 1.0 | 0.07 | 1.53 | 1.53 | 98 | 1005.4 |
| 20260507143857 | 66 | 48 | 0.0 | 0.0 | 0.07 | 1.53 | 1.53 | 98 | 1005.5 |
| 20260507143354 | 66 | 37 | 0.0 | 0.0 | 0.00 | 1.52 | 1.52 | 98 | 1006.1 |